Monett, MO

8:13 AM CDT on September 26, 2017 (GMT -0500)
Monett

Weather History for KHFJ - January, 2013

Change the Weather History Date:

Saturday, January 12, 2013

  Actual Average (KJLN) Record (KJLN)
Temperature  
Mean Temperature 40 °F -  
Max Temperature 55 °F 39 °F 70 °F (2000)
Min Temperature 26 °F 21 °F -4 °F (1963)
Degree Days  
Heating Degree Days 24    
Moisture  
Dew Point 33 °F    
Average Humidity 80    
Maximum Humidity 100    
Minimum Humidity 41    
Precipitation  
Precipitation 0.60 in - - ()
Sea Level Pressure  
Sea Level Pressure 29.89 in    
Wind  
Wind Speed 11 mph (North)    
Max Wind Speed 20 mph    
Max Gust Speed 29 mph    
Visibility 9 miles    
Events Rain , Snow , Thunderstorm    
Averages and records for this station are not official NWS values.
T = Trace of Precipitation, MM = Missing Value Source: NWS Daily Summary

Daily Weather History Graph

Daily Weather History Graph

Search for Another Location

Airport or City:

Trip Planner

Search our weather history database for the weather conditions in past years. The results will help you decide how hot, cold, wet, or windy it might be!

Date:

Astronomy

Jan. 12, 2013 Rise Set
Actual Time 7:28 AM CST 5:20 PM CST
Civil Twilight 7:00 AM CST 5:48 PM CST
Nautical Twilight 6:28 AM CST 6:20 PM CST
Astronomical Twilight 5:57 AM CST 6:52 PM CST
Moon 7:50 AM CST (1/12) 6:47 PM CST (1/12)
Length of Visible Light 10h 48m
Length of Day
9h 51m
New Moon, 1% of the Moon is Illuminated
Jan 12
New Moon
Jan 18
First Quarter
Jan 26
Full
Feb 3
Last Quarter
Feb 10
New

Hourly Weather History & Observations

Time (CST) Temp. Windchill Dew Point Humidity Pressure Visibility Wind Dir Wind Speed Gust Speed Precip Events Conditions
12:15 AM 55.4 °F - 44.6 °F 67% 29.80 in 10.0 mi South 13.8 mph 21.9 mph N/A   Clear
12:35 AM 55.4 °F - 44.6 °F 67% 29.80 in 10.0 mi South 13.8 mph - N/A   Clear
12:55 AM 55.4 °F - 44.6 °F 67% 29.80 in 10.0 mi South 12.7 mph - N/A   Clear
1:15 AM 55.4 °F - 44.6 °F 67% 29.81 in 10.0 mi South 13.8 mph 17.3 mph N/A   Clear
1:35 AM 55.4 °F - 46.4 °F 72% 29.81 in 10.0 mi South 12.7 mph - N/A   Clear
1:55 AM 55.4 °F - 46.4 °F 72% 29.82 in 10.0 mi South 10.4 mph - N/A   Scattered Clouds
2:15 AM 55.4 °F - 46.4 °F 72% 29.84 in 10.0 mi South 10.4 mph - N/A   Overcast
2:35 AM 55.4 °F - 46.4 °F 72% 29.86 in 10.0 mi WSW 8.1 mph - N/A   Overcast
2:55 AM 55.4 °F - 46.4 °F 72% 29.86 in 10.0 mi SW 4.6 mph - N/A   Overcast
3:15 AM 55.4 °F - 46.4 °F 72% 29.85 in 10.0 mi Calm Calm - N/A   Overcast
3:35 AM 55.4 °F - 46.4 °F 72% 29.86 in 10.0 mi WSW 6.9 mph - N/A   Overcast
3:55 AM 55.4 °F - 46.4 °F 72% 29.86 in 10.0 mi WSW 6.9 mph - N/A   Overcast
4:15 AM 55.4 °F - 46.4 °F 72% 29.86 in 10.0 mi West 6.9 mph - N/A   Overcast
4:35 AM 55.4 °F - 46.4 °F 72% 29.87 in 10.0 mi West 6.9 mph - N/A   Overcast
4:55 AM 53.6 °F - 46.4 °F 77% 29.86 in 10.0 mi Calm Calm - N/A   Overcast
5:15 AM 51.8 °F - 28.4 °F 41% 29.87 in 10.0 mi NNW 9.2 mph 17.3 mph N/A   Overcast
5:35 AM 51.8 °F - 30.2 °F 44% 29.87 in 10.0 mi North 9.2 mph - N/A   Overcast
5:55 AM 50.0 °F - 28.4 °F 43% 29.85 in 10.0 mi North 11.5 mph - N/A   Overcast
6:15 AM 50.0 °F - 30.2 °F 47% 29.88 in 10.0 mi NNW 10.4 mph 18.4 mph N/A   Overcast
6:35 AM 48.2 °F - 30.2 °F 50% 29.88 in 10.0 mi North 11.5 mph - N/A   Overcast
6:55 AM 46.4 °F 42.4 °F 30.2 °F 53% 29.90 in 10.0 mi NNW 8.1 mph - N/A   Overcast
7:15 AM 46.4 °F 41.5 °F 30.2 °F 53% 29.92 in 10.0 mi North 10.4 mph - N/A   Overcast
7:35 AM 44.6 °F 38.8 °F 32.0 °F 61% 29.93 in 10.0 mi NNW 11.5 mph 16.1 mph N/A   Overcast
7:55 AM 44.6 °F 39.7 °F 32.0 °F 61% 29.93 in 10.0 mi North 9.2 mph - N/A   Overcast
8:15 AM 42.8 °F 36.6 °F 33.8 °F 70% 29.94 in 10.0 mi NW 11.5 mph - N/A   Overcast
8:35 AM 41.0 °F 32.5 °F 33.8 °F 76% 29.97 in 10.0 mi NW 17.3 mph - N/A   Overcast
8:55 AM 41.0 °F 32.5 °F 32.0 °F 70% 29.96 in 10.0 mi North 17.3 mph 21.9 mph N/A   Overcast
9:15 AM 39.2 °F 30.5 °F 32.0 °F 75% 29.95 in 10.0 mi North 16.1 mph 21.9 mph N/A   Overcast
9:35 AM 39.2 °F 30.5 °F 32.0 °F 75% 29.93 in 10.0 mi North 16.1 mph - N/A   Overcast
9:55 AM 39.2 °F 30.8 °F 32.0 °F 75% 29.96 in 10.0 mi North 15.0 mph - N/A   Overcast
10:15 AM 37.4 °F 29.3 °F 30.2 °F 75% 29.94 in 10.0 mi North 12.7 mph 23.0 mph N/A   Overcast
10:35 AM 37.4 °F 27.5 °F 32.0 °F 81% 29.93 in 10.0 mi North 18.4 mph 21.9 mph N/A   Overcast
10:55 AM 37.4 °F 27.2 °F 30.2 °F 75% 29.93 in 10.0 mi North 19.6 mph 24.2 mph N/A   Overcast
11:15 AM 37.4 °F 28.2 °F 30.2 °F 75% 29.95 in 10.0 mi North 16.1 mph 19.6 mph N/A   Overcast
11:35 AM 37.4 °F 29.8 °F 30.2 °F 75% 29.95 in 10.0 mi North 11.5 mph - N/A   Overcast
11:55 AM 37.4 °F 30.8 °F 30.2 °F 75% 29.94 in 10.0 mi North 9.2 mph - N/A   Overcast
12:15 PM 37.4 °F 28.9 °F 28.4 °F 70% 29.93 in 10.0 mi North 13.8 mph 17.3 mph N/A   Overcast
12:35 PM 37.4 °F 28.9 °F 28.4 °F 70% 29.92 in 10.0 mi North 13.8 mph 18.4 mph N/A   Overcast
12:55 PM 35.6 °F 27.1 °F 28.4 °F 75% 29.89 in 10.0 mi North 12.7 mph - N/A   Drizzle
1:15 PM 35.6 °F 26.2 °F 28.4 °F 75% 29.89 in 10.0 mi North 15.0 mph - N/A   Light Drizzle
1:35 PM 33.8 °F 25.3 °F 28.4 °F 81% 29.88 in 3.0 mi NNE 11.5 mph - 0.01 in Rain Rain
1:55 PM 33.8 °F 24.8 °F 30.2 °F 87% 29.85 in 10.0 mi NNE 12.7 mph 18.4 mph 0.01 in Rain Rain
2:15 PM 33.8 °F 24.8 °F 30.2 °F 87% 29.85 in 10.0 mi NNE 12.7 mph 18.4 mph 0.01 in Rain Light Rain
2:35 PM 32.0 °F 22.5 °F 30.2 °F 93% 29.84 in 7.0 mi NNE 12.7 mph - 0.02 in Rain Rain
2:55 PM 32.0 °F 23.6 °F 32.0 °F 100% 29.84 in 5.0 mi NNE 10.4 mph - 0.05 in Rain Light Rain
3:15 PM 32.0 °F 23.0 °F 32.0 °F 100% 29.87 in 4.0 mi NNE 11.5 mph - 0.02 in Rain Rain
3:35 PM 32.0 °F 21.6 °F 32.0 °F 100% 29.91 in 1.2 mi NNW 15.0 mph 20.7 mph 0.13 in   Overcast
3:55 PM 32.0 °F 22.1 °F 32.0 °F 100% 29.87 in 4.0 mi North 13.8 mph 21.9 mph 0.16 in Snow Light Snow
4:15 PM 32.0 °F 22.1 °F 32.0 °F 100% 29.85 in 2.5 mi North 13.8 mph 20.7 mph 0.02 in Snow , Thunderstorm Light Thunderstorms and Snow
4:35 PM 32.0 °F 21.6 °F 30.2 °F 93% 29.87 in 3.0 mi North 15.0 mph 28.8 mph 0.05 in Snow Light Snow
4:55 PM 32.0 °F 21.6 °F 30.2 °F 93% 29.86 in 4.0 mi North 15.0 mph - 0.09 in Snow Light Snow
5:15 PM 32.0 °F 21.6 °F 30.2 °F 93% 29.83 in 10.0 mi NNE 15.0 mph 19.6 mph N/A   Overcast
5:35 PM 32.0 °F 22.5 °F 30.2 °F 93% 29.84 in 10.0 mi North 12.7 mph 21.9 mph N/A   Overcast
5:55 PM 32.0 °F 22.1 °F 30.2 °F 93% 29.89 in 2.5 mi North 13.8 mph 19.6 mph 0.04 in Snow Light Snow
6:15 PM 32.0 °F 23.0 °F 30.2 °F 93% 29.89 in 5.0 mi North 11.5 mph 17.3 mph 0.01 in   Overcast
6:35 PM 30.2 °F 20.8 °F 28.4 °F 93% 29.89 in 10.0 mi North 11.5 mph 23.0 mph 0.01 in   Overcast
6:55 PM 30.2 °F 24.3 °F 30.2 °F 100% 29.91 in 1.2 mi North 5.8 mph - 0.17 in Snow Light Snow
7:15 PM 30.2 °F 23.4 °F 28.4 °F 93% 29.94 in 3.0 mi North 6.9 mph - 0.03 in Snow Light Snow
7:35 PM 30.2 °F 23.4 °F 30.2 °F 100% 29.92 in 7.0 mi North 6.9 mph - 0.08 in Rain Light Freezing Rain
7:55 PM 30.2 °F 23.4 °F 30.2 °F 100% 29.89 in 10.0 mi North 6.9 mph - 0.08 in   Light Freezing Rain
8:15 PM 30.2 °F 24.3 °F 28.4 °F 93% 29.93 in 10.0 mi North 5.8 mph - N/A   Overcast
8:35 PM 30.2 °F 22.6 °F 28.4 °F 93% 29.93 in 10.0 mi NNW 8.1 mph - N/A   Overcast
8:55 PM 30.2 °F 23.4 °F 28.4 °F 93% 29.92 in 10.0 mi North 6.9 mph - N/A   Overcast
9:15 PM 30.2 °F 22.6 °F 28.4 °F 93% 29.94 in 10.0 mi North 8.1 mph - N/A   Overcast
9:35 PM 30.2 °F 22.6 °F 28.4 °F 93% 29.93 in 10.0 mi North 8.1 mph - N/A   Overcast
9:55 PM 28.4 °F 22.2 °F 26.6 °F 93% 29.93 in 10.0 mi North 5.8 mph - N/A   Overcast
10:15 PM 28.4 °F 21.2 °F 26.6 °F 93% 29.94 in 10.0 mi North 6.9 mph - N/A   Overcast
10:35 PM 28.4 °F 22.2 °F 26.6 °F 93% 29.96 in 10.0 mi North 5.8 mph - N/A   Overcast
10:55 PM 26.6 °F 20.0 °F 26.6 °F 100% 29.95 in 10.0 mi North 5.8 mph - N/A   Overcast
11:15 PM 26.6 °F 18.2 °F 26.6 °F 100% 29.95 in 10.0 mi North 8.1 mph - N/A   Overcast
11:35 PM 26.6 °F 20.0 °F 26.6 °F 100% 29.96 in 10.0 mi North 5.8 mph - N/A   Overcast
11:55 PM 26.6 °F 20.0 °F 24.8 °F 93% 29.96 in 10.0 mi North 5.8 mph - N/A   Overcast